Regional Weather Roundup
Issued by NWS

Home | Current Version | Previous Version | Text Only | Print | Product List | Glossary Off
Versions: 1 2 3 4 5 6 7 8 9 10 11 12 13 14 15 16 17 18 19 20 21 22 23 24 25 26 27 28 29 30 31 32 33 34 35 36 37 38 39 40 41 42 43 44 45 46 47 48 49 50

000
ASUS43 KMKX 251611
RWRWI

WISCONSIN REGIONAL WEATHER ROUNDUP
NATIONAL WEATHER SERVICE MILWAUKEE/SULLIVAN WI
1100 AM CDT WED MAY 25 2016

NOTE: "FAIR" INDICATES FEW OR NO CLOUDS BELOW 12,000 FEET WITH NO
SIGNIFICANT WEATHER AND/OR OBSTRUCTIONS TO VISIBILITY.

WIZ001-002-006>008-014>016-023>028-251700-
NORTHWEST WISCONSIN

CITY           SKY/WX    TMP DP  RH WIND       PRES   REMARKS
SUPERIOR ARPT  FOG       45  45 100 NE12G20   30.03F VSB 3/4
ASHLAND        FOG       52  52 100 NE9       30.04S VSB 1
HAYWARD        CLOUDY    69  57  65 E7        29.99S
SIREN          CLOUDY    68  58  72 E6        29.94S
CUMBERLAND     CLOUDY    73  55  53 SE12      29.94F
RICE LAKE      CLOUDY    75  58  55 E10       29.96S
CHETEK         CLOUDY    75  61  61 E10G17    29.95S
LADYSMITH      CLOUDY    73  60  63 E12       29.99S
EAU CLAIRE     CLOUDY    75  59  57 SE10      29.93S
MENOMONIE      CLOUDY    76  60  56 SE13G18   29.93S
NEW RICHMOND   CLOUDY    71  57  61 S13       29.93R
OSCEOLA        LGT RAIN  72  60  67 SE9       29.94S
$$

WIZ003>005-009-010-017-018-251700-
NORTH CENTRAL WISCONSIN

CITY           SKY/WX    TMP DP  RH WIND       PRES   REMARKS
MANITOWISH WTR NOT AVBL
ARBOR VITAE    MOSUNNY   65  57  75 E7        30.04S
WOODRUFF       MOSUNNY   65  57  75 E7        30.04S
RHINELANDER    CLOUDY    62  57  83 E10       30.06S
EAGLE RIVER      N/A     66  57  71 E6        30.05F
LAND O LAKES   CLOUDY    63  56  78 E5        30.06S
PHILLIPS       PTSUNNY   67  59  76 E10       30.01S
TOMAHAWK       CLOUDY    67  59  75 E9        30.03F
MEDFORD        CLOUDY    69  61  76 E8        30.00S
MERRILL        CLOUDY   N/A N/A N/A E8        30.04S
$$

WIZ029-030-035-036-043>047-251700-
CENTRAL WISCONSIN

CITY           SKY/WX    TMP DP  RH WIND       PRES   REMARKS
WAUSAU         CLOUDY    65  58  78 E14       30.01S
MOSINEE        CLOUDY    64  61  88 E10G17    30.03S
MARSHFIELD     CLOUDY    71  60  68 E15       29.98S
STEVENS POINT  CLOUDY    61  56  84 E12       30.02F
WAUPACA        CLOUDY    67  58  72 NE8       30.03S
WAUTOMA        CLOUDY    69  59  70 NE13      30.00S
WISC RAPIDS    PTSUNNY   70  57  63 E9        30.01R
CAMP DOUGLAS   PTSUNNY   79  68  69 SE13      29.95S HX  81
$$

WIZ011>013-019>022-031-037>040-048>050-251700-
NORTHEAST WISCONSIN

CITY           SKY/WX    TMP DP  RH WIND       PRES   REMARKS
ANTIGO         CLOUDY    62  58  89 E9        30.05F
SHAWANO        CLOUDY    65  59  82 E7        30.05S
OCONTO         CLOUDY    60  59  96 E6        30.05S
STURGEON BAY   NOT AVBL
GREEN BAY      CLOUDY    62  57  83 NE10      30.04S
MANITOWOC      CLOUDY    61  56  83 E14       30.04S
APPLETON       PTSUNNY   63  55  77 E10       30.01F
CLINTONVILLE   CLOUDY    64  59  82 E8        30.03F
OSHKOSH        CLOUDY    64  57  78 E10       30.01F
$$

WIZ032>034-041-042-053>061-251700-
SOUTHWEST WISCONSIN

CITY           SKY/WX    TMP DP  RH WIND       PRES   REMARKS
LA CROSSE      CLOUDY    72  65  78 SE6       29.90F
SPARTA         CLOUDY    76  62  62 S7        29.95F
VIROQUA        CLOUDY    74  62  65 SE8       29.94F
BOSCOBEL       PTSUNNY   80  63  55 CALM      29.91F HX  81
PRAIRIE DU CHI CLOUDY    72  62  70 E9        29.88F
PLATTEVILLE    CLOUDY    78  63  58 SE13      29.93F HX  80
$$

WIZ056-057-062-063-064-067-068-251700-
SOUTH CENTRAL WISCONSIN

CITY           SKY/WX    TMP DP  RH WIND       PRES   REMARKS
REEDSBURG      PTSUNNY   76  65  68 SE3       29.96F
BARABOO/DELLS  PTSUNNY   76  62  60 S6        29.97F
LONE ROCK      CLOUDY    78  64  61 SE8       29.95F HX  80
MINERAL POINT  MOSUNNY   79  63  57 E12       29.94F HX  80
MADISON        CLOUDY    77  64  64 SE7       29.96F
MIDDLETON      CLOUDY    79  64  59 S9        29.97F HX  81
WATERTOWN      MOSUNNY   79  66  65 S7        29.98S HX  81
MONROE         MOSUNNY   79  64  61 S13       29.97F HX  81
JANESVILLE     SUNNY     81  64  57 S8        29.98S HX  82
$$

WIZ051-052-058>065-066-070>072-251700-
SOUTHEAST WISCONSIN

CITY           SKY/WX    TMP DP  RH WIND       PRES   REMARKS
MILWAUKEE      CLOUDY    59  52  77 N9        30.02S
WAUKESHA       SUNNY     72  59  64 E7        30.01F
MILWAUKEE/TIMM SUNNY     64  54  68 NE5       30.02F
RACINE         CLOUDY    64  54  69 N9        30.02S
BURLINGTON     MOSUNNY   79  61  52 SW8       29.98F HX  80
KENOSHA        CLOUDY    80  65  59 S8        29.98F HX  82
FOND DU LAC    PTSUNNY   69  60  73 NE13      30.00F
SHEBOYGAN      SUNNY     60  54  80 NE16      30.03F
WEST BEND      CLOUDY    68  57  68 E8        30.01F
JUNEAU         CLOUDY    78  64  63 SE9       29.99F
$$

LSZ147-162-251700-
LAKE SUPERIOR

STATION/POSITION TIME  TEMP    WIND        PRES    WAVE
                       AIR SEA DIR/SP/G            HT/PER
                 (UTC) (F)     (DEG/KT/KT) (MB)    (FT/S)
W MID LAKE BUOY  1550   40 38   50/ 16/ 17 1018.5F   1/ 3
DEVILS ISLAND    1500   44      60/ 21/ 23 1018.2F
PORT WING        1500   44      40/ 14/ 15 1017.3S
SAXON HARBOR     1500   46     350/  3/  4 1016.9
$$

LMZ867-665-643>646-251700-
LAKE MICHIGAN

STATION/POSITION TIME  TEMP    WIND        PRES    WAVE
                       AIR SEA DIR/SP/G            HT/PER
                 (UTC) (F)     (DEG/KT/KT) (MB)    (FT/S)
CHAMBERS ISLAND  1500   53      20/  8/  9 1018.3
N MID LAKE BUOY  1550   49 45   20/  8/ 10 1017.9F   0
NORTHPORT PIER   1500   52     340/  8/ 10 1018.3S
SISTER BAY       1504   56      10/ 13/ 15   N/A
ALGOMA LAKESHORE 1547           60/ 12/ 15   N/A
KEWAUNEE LAKESHO 1500   53      30/  6/ 10 1016.9F
SHEBOYGAN LAKESH 1600   50      20/ 14/ 15 1017.6F
PORT WASHINGTON  1500   56      40/ 11/ 15 1017.9
S MID LAKE BUOY  1550   54 49  150/  6/  8 1016.2S   1
KENOSHA   LAKESH 1600   63     140/  5/  6 1015.6S
$$

TC  - TEMPERATURE IN CELSIUS
VSB - VISIBILITY IN STATUTE MILES
WCI - WIND CHILL INDEX
HX  - HEAT INDEX





USA.gov is the U.S. government's official web portal to all federal, state and local government web resources and services.